Location: Apollinopolis Magna
(24.9792°N, 32.8772°E)
Time: 05:14:33
(UTC+00:00)

Cosmos 2360 Rocket - Pass Details

Date: 02 March 2021
Orbit: 832 x 846 km, 71.0° (Epoch: 12 April)

Event Time Altitude Azimuth Distance (km) Brightness Sun altitude
Rises 17:05:00 0° 213° (SSW) 3,368 5.8 -17.5°
Reaches altitude 10° 17:07:32 10° 220° (SW) 2,438 5.1 -18.1°
Maximum altitude 17:12:50 44° 291° (WNW) 1,146 3.3 -19.3°
Drops below altitude 10° 17:18:11 10° 3° (N) 2,456 4.6 -20.5°
Sets 17:20:46 0° 10° (N) 3,395 5.3 -21.1°
